Back to catalog

CZ-6A DEB

AliveSSO
NORAD 54896·DEBRIS·🇨🇳 China

Launched Nov 11, 2022 from Taiyuan Satellite Launch Center

Loading…

Next Passes (next 24 hours)

TLE

FreshSource: Space-Track

Epoch: Sep 14, 2026, 09:39 UTC

1 54896U 22151QH  26257.40246999  .00000307  00000-0  21087-3 0  9999
2 54896  98.8661 245.3184 0065053 114.3181 246.4798 14.05657570194179

Track CZ-6A DEB in real time with AllMySat

Download on the App Store